Location: Newark
(38.0892°N, 27.7378°E)
Time: 01:30:55
(UTC+00:00)

N. Korean satellite - Pass Details

Date: 15 December 2019
Orbit: 454 x 507 km, 97.2° (Epoch: 23 January)

Event Time Altitude Azimuth Distance (km) Brightness Sun altitude
Rises 02:54:50 0° 36° (NE) 2,510 10.5 -27.3°
Reaches altitude 10° 02:58:14 10° 73° (ENE) 1,614 10.0 -26.6°
Maximum altitude 02:59:21 11° 92° (E) 1,532 10.0 -26.4°
Drops below altitude 10° 03:00:28 10° 111° (ESE) 1,603 10.2 -26.2°
Sets 03:03:48 0° 147° (SSE) 2,461 10.8 -25.5°
